Probability
0 0 0 0 0 0 0 0 0 0 0 10 6 13 23 19 16 13 13 10 19 10 10 10 6 6 6 6 6 6 6 10 6 10 10 13 13 6 6 6 6 10 10 10
0 0 0 0 0 0 0 0 0 6 6 3 6 6 19 16 19 19 13 13 13 13 13 10 6 6 6 6 6 6 6 6 3 3 3 6 6 6 6 10 10 10 10 10
0 0 0 0 0 0 0 0 0 3 3 3 3 3 13 16 16 16 10 13 10 13 13 6 6 6 6 3 3 3 3 6 6 6 6 6 6 6 6 6 3 3 3 3
0 0 0 0 0 0 0 0 0 0 0 0 0 3 6 10 10 10 3 3 13 16 6 6 6 3 3 3 3 3 3 3 6 6 6 6 6 6 6 6 0 0 0 0
0 0 0 0 0 0 0 0 0 0 0 0 0 0 0 3 6 6 6 6 13 6 10 10 6 3 3 3 3 3 3 3 3 6 6 6 6 6 3 0 0 0 0 0
0 0 0 0 0 0 0 0 0 0 0 0 0 0 0 0 6 6 6 10 13 10 10 6 3 3 3 3 3 3 3 3 3 3 6 6 6 3 0 0 0 0 0 0
0 0 0 0 0 0 0 0 0 0 0 0 0 0 0 0 0 6 6 6 10 10 6 3 3 3 3 3 3 3 3 3 3 3 3 3 6 3 0 0 0 0 0 0
0 0 0 0 0 0 0 0 0 0 0 0 0 0 0 0 0 3 6 10 10 6 0 0 0 0 0 3 3 3 3 3 3 0 0 0 0 0 0 0 0 0 0 0
0 0 0 0 0 0 0 0 0 0 0 0 0 0 0 0 3 0 6 6 6 3 0 0 0 0 0 0 0 3 0 0 0 0 0 0 0 0 0 0 0 0 0 0
0 0 0 0 0 0 0 0 0 0 0 0 0 0 0 0 3 3 6 6 6 0 0 0 0 0 0 0 0 0 0 0 0 0 0 0 0 0 0 0 0 0 0 0
0 0 0 0 0 0 0 0 0 0 0 0 0 0 0 0 3 3 6 6 0 0 0 0 0 0 0 0 0 0 0 0 0 0 0 0 0 0 0 0 0 0 0 0
0 0 0 0 0 0 0 0 0 0 0 0 0 0 0 0 3 3 6 3 0 0 0 0 0 0 0 0 0 0 0 0 0 0 0 0 0 0 0 0 0 0 0 0
0 0 0 0 0 0 0 0 0 0 0 0 0 0 0 0 0 3 0 0 0 0 0 0 0 0 0 0 0 0 0 0 0 0 0 0 0 0 0 0 0 0 0 0
0 0 0 0 0 0 0 0 0 0 0 0 0 0 0 0 3 6 3 0 0 0 0 0 0 0 0 0 0 0 0 0 0 0 0 0 0 0 0 0 0 0 0 0
0 0 0 0 0 0 0 0 0 0 0 0 0 0 0 0 0 6 3 0 0 0 0 0 0 0 0 0 0 0 0 0 0 0 0 0 0 0 0 0 0 0 0 0
0 0 0 0 0 0 0 0 0 0 0 0 0 0 0 0 0 0 0 0 0 0 0 0 0 0 0 0 0 0 0 0 0 0 0 0 0 0 0 0 0 0 0 0
0 0 0 0 0 0 0 0 0 0 0 0 0 0 0 0 0 0 0 0 0 0 0 0 0 0 0 0 0 0 0 0 0 0 0 0 0 0 0 0 0 0 0 0
0 0 0 0 0 0 0 0 0 0 0 0 0 0 0 0 0 0 0 0 0 0 0 0 0 0 0 0 0 0 0 0 0 0 0 0 0 0 0 0 0 0 0 0
0 0 0 0 0 0 0 0 0 0 0 0 0 0 0 0 0 0 0 0 0 0 0 0 0 0 0 0 0 0 0 0 0 0 0 0 0 0 0 0 0 0 0 0
0 0 0 0 0 0 0 0 0 0 0 0 0 0 0 0 0 0 0 0 0 0 0 0 0 0 0 0 0 0 0 0 0 0 0 0 0 0 0 0 0 0 0 0
0 0 0 0 0 0 0 0 0 0 0 0 0 0 0 0 0 0 0 0 0 0 0 0 0 0 0 0 0 0 0 0 0 0 0 0 0 0 0 0 0 0 0 0
0 0 0 0 0 0 0 0 0 0 0 0 0 0 0 0 0 0 0 0 0 0 0 0 0 0 0 0 0 0 0 0 0 0 0 0 0 0 0 0 0 0 0 0
0 0 0 0 0 0 0 0 0 0 0 0 0 0 0 0 0 0 0 0 0 0 0 0 0 0 0 0 0 0 0 0 0 0 0 0 0 0 0 0 0 0 0 0
0 0 0 0 0 0 0 0 0 0 0 0 0 0 0 0 0 0 0 0 0 0 0 0 0 0 0 0 0 0 0 0 0 0 0 0 0 0 0 0 0 0 0 0
0 0 0 0 0 0 0 0 0 0 0 0 0 0 0 0 0 0 0 0 0 0 0 0 0 0 0 0 0 0 0 0 0 0 0 0 0 0 0 0 0 0 0 0
0 0 0 0 0 0 0 0 0 0 0 0 0 0 0 0 0 0 0 0 0 0 0 0 0 0 0 0 0 0 0 0 0 0 0 0 0 0 0 0 0 0 0 0
Height
5810 5814 5816 5819 5821 5824 5826 5828 5830 5832 5834 5836 5837 5838 5839 5840 5840 5840 5840 5840 5839 5838 5837 5837 5837 5836 5836 5836 5835 5834 5835 5835 5835 5835 5836 5836 5837 5837 5836 5836 5836 5836 5836 5836
5809 5811 5813 5815 5818 5821 5823 5825 5827 5829 5831 5833 5834 5835 5836 5837 5837 5837 5837 5836 5835 5834 5833 5833 5833 5832 5832 5831 5831 5831 5831 5831 5831 5831 5831 5832 5831 5831 5831 5830 5830 5830 5830 5830
5806 5809 5811 5814 5816 5819 5821 5823 5825 5827 5829 5830 5832 5833 5833 5834 5834 5833 5833 5833 5832 5831 5830 5829 5829 5829 5828 5827 5827 5827 5826 5827 5827 5826 5826 5825 5825 5825 5824 5824 5824 5824 5823 5823
5803 5806 5809 5812 5814 5817 5819 5821 5823 5825 5826 5827 5830 5830 5831 5831 5831 5831 5830 5830 5829 5828 5827 5826 5825 5825 5825 5824 5823 5823 5823 5822 5822 5822 5821 5820 5820 5819 5819 5818 5818 5817 5816 5815
5802 5804 5807 5810 5813 5815 5817 5819 5820 5822 5823 5825 5826 5827 5829 5828 5829 5829 5828 5827 5826 5825 5824 5822 5821 5821 5820 5819 5818 5818 5818 5818 5817 5816 5815 5815 5814 5813 5812 5812 5811 5810 5809 5808
5800 5803 5806 5808 5810 5813 5814 5816 5818 5819 5820 5822 5823 5824 5825 5825 5826 5825 5824 5823 5822 5821 5819 5818 5817 5816 5815 5814 5813 5813 5812 5812 5811 5810 5809 5808 5807 5806 5805 5804 5803 5803 5802 5801
5798 5801 5804 5806 5808 5810 5812 5814 5816 5816 5817 5819 5820 5820 5822 5822 5821 5821 5820 5819 5817 5816 5815 5813 5812 5811 5810 5809 5807 5807 5806 5805 5804 5804 5803 5802 5801 5799 5798 5797 5796 5795 5794 5794
5797 5800 5802 5804 5806 5808 5810 5812 5814 5815 5815 5816 5817 5817 5819 5818 5817 5817 5816 5815 5813 5812 5810 5808 5807 5806 5804 5802 5801 5800 5800 5799 5798 5797 5796 5794 5793 5792 5791 5790 5789 5788 5787 5786
5795 5798 5800 5802 5804 5806 5807 5808 5810 5812 5812 5813 5813 5814 5815 5814 5813 5813 5812 5811 5809 5807 5806 5804 5802 5800 5797 5795 5794 5794 5793 5792 5791 5789 5788 5787 5786 5785 5783 5782 5781 5780 5779 5779
5793 5795 5797 5799 5801 5803 5805 5806 5807 5808 5808 5809 5810 5810 5811 5810 5810 5809 5808 5806 5804 5802 5800 5798 5796 5794 5793 5791 5789 5788 5787 5785 5784 5783 5781 5780 5779 5777 5776 5775 5774 5773 5772 5771
5791 5793 5795 5797 5799 5800 5802 5804 5804 5805 5805 5806 5806 5809 5808 5807 5805 5804 5802 5800 5798 5796 5795 5793 5791 5789 5787 5785 5783 5782 5780 5779 5777 5776 5775 5773 5772 5770 5768 5767 5766 5765 5764 5763
5788 5791 5792 5794 5796 5797 5799 5800 5801 5803 5803 5803 5803 5807 5803 5802 5801 5799 5797 5795 5793 5791 5789 5787 5785 5783 5781 5779 5777 5776 5774 5772 5771 5769 5768 5766 5764 5762 5761 5760 5758 5758 5757 5756
5786 5788 5790 5792 5795 5795 5796 5797 5798 5799 5799 5799 5799 5802 5799 5797 5796 5794 5792 5790 5787 5785 5783 5782 5780 5777 5775 5773 5771 5769 5767 5766 5764 5762 5761 5759 5757 5755 5753 5752 5751 5750 5750 5749
5784 5786 5788 5790 5791 5792 5793 5794 5794 5795 5795 5795 5795 5795 5794 5793 5791 5789 5787 5784 5783 5780 5778 5776 5774 5772 5769 5767 5765 5763 5761 5759 5758 5756 5754 5752 5750 5748 5747 5746 5745 5744 5743 5743
5782 5784 5785 5787 5788 5789 5790 5791 5791 5792 5792 5792 5791 5791 5790 5788 5786 5784 5782 5780 5778 5775 5773 5770 5768 5766 5764 5762 5760 5757 5755 5753 5752 5750 5748 5746 5744 5743 5741 5740 5739 5738 5738 5737
5780 5782 5783 5784 5785 5786 5787 5787 5788 5788 5788 5788 5787 5787 5786 5784 5781 5779 5777 5775 5773 5770 5768 5765 5763 5761 5759 5756 5754 5752 5750 5748 5746 5745 5743 5742 5740 5738 5737 5736 5735 5734 5733 5733
5778 5780 5781 5782 5783 5784 5785 5785 5785 5785 5785 5784 5783 5783 5781 5779 5777 5775 5773 5771 5768 5766 5763 5760 5758 5756 5754 5752 5749 5747 5745 5743 5742 5740 5739 5738 5736 5734 5733 5732 5731 5730 5730 5730
5778 5779 5780 5781 5782 5782 5785 5782 5782 5782 5782 5781 5780 5779 5777 5775 5773 5771 5768 5766 5764 5761 5758 5756 5753 5751 5749 5747 5744 5743 5741 5740 5738 5737 5735 5734 5733 5732 5730 5729 5728 5728 5727 5727
5777 5778 5779 5780 5780 5780 5781 5780 5780 5779 5779 5777 5776 5775 5773 5771 5769 5766 5764 5761 5759 5756 5754 5751 5749 5747 5744 5742 5741 5739 5738 5736 5735 5734 5733 5732 5730 5729 5728 5727 5726 5726 5725 5725
5777 5778 5779 5779 5779 5779 5780 5778 5777 5778 5776 5775 5773 5771 5770 5768 5766 5764 5760 5757 5755 5752 5749 5747 5745 5743 5741 5739 5738 5736 5735 5734 5733 5732 5731 5730 5728 5728 5727 5726 5725 5725 5724 5724
5777 5777 5778 5778 5778 5777 5778 5776 5776 5776 5775 5772 5770 5768 5766 5764 5763 5760 5757 5754 5752 5749 5746 5744 5742 5740 5738 5737 5735 5734 5733 5732 5731 5730 5729 5728 5727 5727 5726 5725 5725 5724 5724 5724
5777 5777 5777 5777 5776 5778 5776 5775 5774 5773 5771 5769 5767 5766 5763 5761 5759 5757 5754 5751 5749 5746 5744 5742 5740 5738 5736 5735 5734 5733 5732 5731 5730 5729 5729 5728 5727 5727 5726 5725 5725 5725 5725 5724
5776 5777 5776 5777 5777 5775 5774 5773 5772 5770 5768 5767 5765 5763 5761 5758 5756 5754 5751 5749 5747 5745 5742 5740 5738 5737 5735 5734 5733 5732 5732 5731 5730 5730 5729 5728 5728 5727 5727 5726 5726 5726 5726 5726
5776 5776 5776 5775 5775 5774 5773 5771 5770 5768 5766 5764 5762 5760 5758 5756 5754 5752 5750 5748 5746 5744 5742 5740 5738 5736 5735 5734 5733 5733 5732 5731 5731 5730 5730 5730 5729 5729 5728 5728 5728 5727 5727 5727
5776 5776 5775 5775 5774 5773 5771 5770 5768 5766 5764 5762 5760 5758 5756 5754 5752 5750 5749 5747 5745 5744 5742 5740 5739 5737 5736 5735 5734 5733 5733 5732 5732 5732 5732 5731 5731 5731 5731 5731 5730 5730 5730 5730
5775 5775 5775 5774 5774 5772 5771 5768 5767 5765 5763 5761 5759 5757 5755 5753 5751 5750 5748 5747 5746 5744 5743 5741 5740 5738 5737 5736 5735 5735 5734 5734 5734 5733 5733 5733 5733 5733 5733 5733 5733 5733 5733 5733
Wind_Speed
18 18 18 18 19 20 20 21 22 23 23 21 20 19 18 17 16 16 17 17 17 19 19 18 18 19 19 17 17 17 17 17 18 18 18 19 19 20 20 20 21 22 23 24
18 18 19 20 20 20 20 20 21 21 21 20 18 16 15 15 16 17 17 17 17 18 17 17 17 17 18 18 17 16 16 17 18 18 19 21 21 20 21 22 22 23 24 25
18 18 19 19 19 19 19 19 19 19 18 18 18 16 14 14 16 16 17 17 17 16 16 16 17 17 17 17 17 17 17 18 18 19 21 22 22 21 22 22 23 24 25 26
18 19 19 18 18 18 19 19 19 18 18 17 17 16 14 14 15 16 17 17 16 16 16 16 18 19 18 17 18 18 19 19 20 21 22 22 23 23 24 24 24 25 27 27
18 18 18 17 17 17 18 19 19 19 18 18 17 17 15 15 15 16 17 17 17 17 18 18 18 19 19 19 20 21 21 21 21 22 23 24 25 25 26 26 26 27 28 28
18 18 17 16 17 17 18 19 19 19 19 18 17 17 15 15 15 16 18 18 18 18 18 19 19 19 20 21 21 21 22 22 23 23 24 25 26 27 27 27 28 28 28 28
18 17 17 17 17 17 18 18 19 19 19 17 16 16 15 15 16 17 17 18 19 18 18 18 19 21 22 23 24 24 24 24 25 25 26 26 27 27 28 28 28 28 28 28
17 17 16 16 16 16 17 17 18 19 19 18 17 18 16 17 18 17 17 17 18 19 19 19 21 22 24 25 25 25 25 25 26 27 27 27 28 28 28 28 28 28 28 28
16 16 15 15 15 16 17 17 17 18 19 19 18 17 17 18 18 17 18 18 19 19 20 21 21 22 23 23 24 25 25 26 27 27 27 27 28 28 28 27 27 27 27 27
15 14 15 16 16 16 17 17 17 17 18 19 18 17 17 17 17 18 18 19 20 21 21 21 21 21 21 23 24 24 25 26 26 26 27 27 27 27 27 27 27 27 27 27
14 14 14 15 16 16 16 17 17 17 17 18 18 16 16 16 17 18 19 20 20 20 21 20 21 21 21 21 21 23 23 24 25 25 26 26 27 26 26 26 27 26 27 26
14 14 14 14 15 16 17 17 17 17 17 18 18 17 17 18 18 19 20 20 20 21 21 20 21 22 21 21 21 21 22 23 23 24 25 25 26 26 26 25 25 26 26 25
14 14 14 15 15 16 17 17 18 18 18 18 19 18 19 19 20 21 21 21 21 21 21 21 21 20 21 21 22 22 22 22 23 24 24 25 25 25 25 24 24 23 23 23
12 13 14 14 14 15 15 16 17 17 18 19 19 19 20 20 21 21 21 21 21 20 20 20 19 19 20 20 21 21 22 22 23 23 23 23 23 22 22 22 21 21 21 21
10 10 11 12 12 13 14 14 15 16 17 18 18 18 19 19 19 19 19 20 19 19 19 19 19 19 19 20 20 21 22 22 21 21 21 21 20 19 18 18 17 17 17 16
9 9 9 10 11 11 12 13 14 14 15 16 16 17 18 18 18 18 18 18 18 18 18 18 18 18 19 19 19 20 20 20 20 19 19 18 17 16 15 15 14 13 13 13
7 7 7 7 8 9 10 10 11 12 12 13 15 16 17 18 18 18 17 17 18 18 18 18 18 18 18 18 18 18 18 17 17 17 16 15 14 13 12 12 11 10 10 10
6 6 6 6 7 8 8 9 9 10 12 14 14 15 16 16 17 17 16 16 17 17 17 17 16 17 17 17 16 15 14 14 14 13 13 12 11 10 10 9 8 7 7 7
5 5 6 6 7 7 8 9 9 10 11 12 13 14 15 16 16 15 16 15 16 16 16 16 15 15 15 14 13 12 12 11 11 11 10 9 9 8 7 6 5 5 5 5
3 4 4 5 5 7 7 8 8 9 10 11 12 14 15 14 14 13 14 14 15 15 14 14 13 12 11 11 11 10 9 8 8 8 7 7 7 6 6 5 4 3 3 2
3 3 3 4 4 6 7 7 7 8 10 11 12 13 13 12 12 12 13 13 13 13 12 11 10 9 9 9 9 8 7 6 6 6 5 5 4 4 4 3 3 2 2 1
3 3 3 3 4 5 6 6 7 9 10 11 11 11 11 11 11 12 12 12 11 11 9 8 8 8 8 7 6 5 4 4 4 4 4 4 3 4 4 3 3 3 3 3
2 2 3 3 4 5 6 7 8 8 9 10 11 11 11 11 11 11 11 10 9 8 7 8 8 7 6 5 4 3 3 3 3 3 3 3 4 4 4 4 4 4 4 4
1 1 2 3 4 5 6 7 7 8 9 9 10 10 10 10 10 9 9 8 8 8 7 7 7 7 6 5 4 3 2 2 3 4 4 4 5 6 6 6 6 7 7 7
2 2 3 3 4 6 7 8 8 8 8 8 8 9 9 9 8 8 8 8 8 8 7 7 6 6 6 5 4 4 4 4 4 5 5 5 6 7 7 8 8 9 9 9
2 3 3 4 5 6 7 8 8 7 7 8 8 8 7 7 7 7 7 7 6 7 7 7 7 7 7 7 6 6 6 6 6 6 7 7 7 7 7 8 9 9 9 10
Wind_Direction
222 220 218 222 223 225 226 228 230 232 237 239 241 244 247 251 256 264 273 277 281 284 284 283 284 286 284 282 278 272 272 271 267 265 261 263 266 266 268 269 269 269 270 269
217 215 215 217 219 222 225 227 227 229 235 238 239 245 250 255 262 269 278 284 286 282 280 283 284 283 283 280 276 271 271 272 269 268 266 267 270 271 270 268 268 269 271 271
216 216 216 218 219 220 223 225 227 231 235 240 242 247 253 261 272 277 280 283 284 284 280 281 281 279 282 281 276 273 272 273 270 271 272 272 273 274 273 271 272 274 273 273
213 214 214 215 219 221 221 224 228 232 239 242 246 250 258 266 272 280 283 286 286 284 283 285 282 280 282 281 277 276 276 275 274 274 275 277 276 276 275 275 274 275 275 274
212 212 213 215 220 221 220 225 230 236 242 245 249 253 260 266 273 280 284 287 284 285 286 288 283 279 282 282 279 277 275 275 276 276 277 278 278 278 277 275 274 274 274 273
212 213 212 214 218 221 222 226 232 239 245 248 254 260 265 272 277 283 287 287 286 286 288 286 282 282 283 284 280 276 275 275 275 277 278 278 278 279 277 276 275 274 274 273
211 213 213 215 218 221 224 228 234 240 244 248 255 264 272 275 279 285 290 290 288 286 287 286 283 281 282 282 280 278 276 277 277 277 277 278 279 278 277 276 275 275 274 273
212 213 216 217 222 226 229 233 239 244 248 253 260 268 276 277 280 283 288 292 291 289 286 287 287 284 284 281 277 276 278 279 278 278 278 278 278 279 278 276 276 275 275 274
216 219 220 221 224 229 232 236 241 247 253 259 265 271 275 277 279 282 285 288 290 291 292 293 291 290 287 281 278 278 278 279 278 278 278 278 279 279 277 276 276 276 275 274
217 220 222 224 227 231 237 241 245 250 257 262 267 272 279 282 283 286 288 289 288 289 293 294 291 290 288 285 281 280 280 280 280 281 280 279 279 279 279 278 276 276 275 274
219 223 225 229 231 236 237 241 247 254 261 267 272 276 283 286 287 292 294 295 294 293 294 292 292 293 290 287 284 283 281 281 281 280 280 279 279 280 280 278 277 276 275 274
222 225 229 232 235 239 242 244 250 257 262 267 274 280 284 288 293 297 298 298 298 296 294 293 292 293 291 288 286 284 283 283 283 283 283 282 281 281 280 281 280 277 275 275
222 227 231 233 237 243 246 249 254 258 262 267 274 279 282 287 293 297 298 298 299 299 295 293 294 294 291 287 286 285 284 284 284 284 285 285 284 283 282 281 281 278 277 276
224 229 230 236 243 248 251 254 257 262 267 271 275 280 286 290 294 296 298 299 300 299 297 296 295 292 290 288 287 286 285 286 287 288 288 289 289 287 284 281 280 279 278 277
223 228 232 237 244 250 255 259 263 267 271 273 277 283 290 293 296 298 299 300 301 301 299 297 296 294 292 290 290 288 288 288 288 290 291 292 293 291 288 285 283 281 279 279
218 225 231 235 245 256 259 261 264 266 273 276 280 284 290 295 298 302 302 301 301 301 300 301 299 297 295 293 293 291 290 289 289 290 292 294 295 295 292 288 287 281 280 278
221 224 231 242 254 258 261 266 269 273 276 284 288 289 294 298 298 300 303 303 303 304 301 300 297 296 294 293 293 292 291 291 291 293 294 295 297 299 297 293 287 283 282 281
218 229 239 251 258 261 264 270 278 283 285 287 290 293 297 300 302 303 303 302 303 306 304 301 298 297 296 295 295 294 296 295 295 296 298 298 300 302 299 297 292 287 285 287
211 228 241 255 264 271 272 277 282 286 291 290 292 297 301 305 307 308 308 308 310 309 307 303 299 297 297 296 296 297 298 298 299 300 300 301 303 308 309 308 304 295 291 291
207 229 247 262 271 276 285 290 292 296 297 298 298 301 305 307 311 314 316 315 314 314 311 309 306 302 301 301 300 299 302 306 308 307 307 310 312 317 321 322 328 322 313 312
230 247 264 273 283 288 293 300 303 298 303 303 304 308 310 311 313 315 320 320 318 317 316 314 312 312 311 310 309 309 307 311 313 316 326 334 334 338 339 343 352 358 3 12
256 267 280 288 296 302 305 306 310 308 308 308 310 315 319 321 321 321 325 327 327 326 325 323 319 321 318 318 318 317 325 330 333 342 353 4 12 16 24 35 42 50 61 66
285 292 300 309 317 321 318 316 316 315 311 313 315 314 319 323 325 329 332 334 338 340 340 339 341 342 340 342 339 337 352 4 14 25 35 42 46 51 56 59 62 66 74 76
358 320 319 314 324 329 326 323 322 319 317 316 319 322 324 330 332 332 340 348 352 358 1 3 10 10 11 17 24 24 19 37 52 60 65 72 72 71 70 70 75 81 84 85
340 330 334 335 338 337 335 335 336 332 330 332 331 331 331 334 338 341 348 356 5 11 17 25 29 26 27 35 47 54 67 77 82 82 86 89 86 82 79 80 83 84 84 86
341 341 347 347 347 346 344 346 352 352 348 350 349 345 347 354 360 4 10 15 19 23 28 34 36 39 50 59 64 69 79 87 90 90 90 90 89 86 86 88 90 90 89 90